[[{"header":{"parameterUnit":"m.s-1","parameterCategory":1,"la1":30.2991,"la2":30.254,"lo1":-89.0895,"lo2":-89.0444,"dy":0.0017,"dx":0.0017,"nx":28,"ny":28,"refTime":"2024-12-02T03:00:00:Z","depth":0,"parameterNumber":2,"parameterNumberName":"U-component_of_WINDS"},"data":[0,0,0,0,0,0,0,0,0,0,0,0,0,0,0,0,0,0,0,0,0,0,0,0,0,0,0,0,0,0,0,0,0,0,0,0,0,0,0,0,0,0,0,0,0,0,0,0,0,0,0,0,0,0,0,0,0,0,0.4291,0.4291,0,0.4269,0.4268,0.4268,0.4264,0.4264,0.4264,0.4264,0.4242,0.4241,0.4241,0,0,0,0,0,0,0,0,0,0,0,0,0,0.4331,0.4331,0.4291,0.4291,0.4291,0.4269,0.4268,0.4268,0.4264,0.4264,0.4264,0.4264,0.4242,0.4241,0.4241,0,0,0,0,0,0,0,0,0,0,0,0,0,0.4312,0.433,0.4291,0.4286,0.4285,0.4269,0.4268,0.4268,0.4264,0.4264,0.4264,0.4264,0.4243,0.4242,0.424,0.4229,0,0,0.4237,0.4237,0,0,0,0,0,0,0,0,0.4313,0.4311,0.4287,0.4286,0.4285,0.4269,0.4275,0.4255,0.4263,0.4272,0.4264,0.4264,0.4251,0.4249,0.4244,0.4228,0.4227,0.4237,0.4236,0.4236,0.4235,0,0,0,0,0,0,0,0.4314,0.4311,0.4282,0.4286,0.4285,0.4285,0.4282,0.4271,0.426,0.4271,0.4271,0.4268,0.4251,0.4246,0.4244,0.4226,0.4237,0.4236,0.4235,0.4235,0.42,0.4199,0,0,0,0,0,0,0.4317,0.4313,0.4283,0.4282,0.43,0.4284,0.4281,0.4274,0.426,0.4258,0.4268,0.4268,0.4247,0.4245,0.4243,0.4229,0.4236,0.4235,0.4234,0.42,0.42,0.4199,0,0,0,0,0,0,0.4318,0.4314,0.4284,0.4297,0.4293,0.4283,0.4275,0.4273,0.4268,0.4258,0.4256,0.4264,0.4247,0.4245,0.4232,0.4228,0.4234,0.4233,0.42,0.42,0.42,0.42,0,0,0,0,0,0,0.4319,0.4314,0.4309,0.4297,0.4292,0.4273,0.4275,0.4273,0.4266,0.4266,0.4254,0.4253,0.4247,0.4234,0.4231,0.4227,0.4232,0.4201,0.42,0.42,0.42,0.42,0.4199,0,0,0,0,0,0.432,0.431,0.4309,0.4305,0.4286,0.4273,0.427,0.4264,0.4266,0.4261,0.4255,0.4253,0.4229,0.4233,0.423,0.4225,0.4201,0.42,0.42,0.4201,0.42,0.4199,0,0,0,0,0,0,0.4322,0.4309,0.4307,0.4293,0.4284,0.4272,0.4266,0.4263,0.4254,0.4254,0.4248,0.4245,0.4233,0.4228,0.4232,0.4213,0.4215,0.4214,0.4217,0.4216,0.4215,0.4217,0.4231,0,0,0,0,0,0.4321,0.4311,0.43,0.4289,0.4284,0.4276,0.427,0.4266,0.4257,0.4253,0.4246,0.4237,0.4228,0.4222,0.4212,0.42,0.4197,0.4195,0.4194,0.4194,0.4193,0.4186,0.4185,0.4197,0.4197,0.4197,0,0,0.4319,0.431,0.4304,0.4289,0.4282,0.4272,0.4273,0.4262,0.4255,0.4252,0.424,0.4234,0.4224,0.4212,0.4206,0.4207,0.4189,0.4193,0.4193,0.4192,0.4185,0.4184,0.4183,0.4197,0.4197,0.4197,0,0,0.4309,0.4302,0.4291,0.4284,0.4273,0.4268,0.4266,0.4254,0.425,0.4238,0.4235,0.4227,0.4211,0.4204,0.4199,0.4188,0.4186,0.4185,0.4182,0.4176,0.4175,0.4174,0.4171,0.4169,0.4184,0.4184,0.4184,0,0.4308,0.4293,0.4287,0.4277,0.427,0.4267,0.4257,0.425,0.4237,0.4233,0.4234,0.4214,0.4207,0.4194,0.4191,0.4187,0.4184,0.4186,0.4176,0.4175,0.4174,0.417,0.4169,0.4184,0.4184,0.4184,0.4184,0,0.4292,0.4281,0.4275,0.4262,0.4255,0.4245,0.4238,0.4232,0.4229,0.4224,0.4212,0.4204,0.4193,0.419,0.4187,0.4176,0.4177,0.4177,0.4179,0.4173,0.4169,0.4168,0.4184,0.4184,0.4184,0.4184,0,0,0.4282,0.4267,0.4264,0.4259,0.4247,0.4239,0.423,0.4219,0.4214,0.4206,0.4198,0.4185,0.4185,0.4179,0.4175,0.417,0.4163,0.4171,0.4171,0.417,0.4151,0.4151,0.4149,0.4162,0.4161,0.4161,0.4152,0,0.4271,0.4254,0.4248,0.4234,0.4225,0.4222,0.4214,0.4206,0.4201,0.4193,0.4188,0.4179,0.418,0.4176,0.417,0.4165,0.4159,0.4165,0.4155,0.4155,0.4157,0.4148,0.4147,0.4139,0.415,0.415,0.415,0,0.4256,0.4247,0.4232,0.4222,0.4218,0.4211,0.4201,0.4193,0.4185,0.4182,0.4175,0.4172,0.4163,0.4166,0.4154,0.4158,0.4154,0.415,0.415,0.4149,0.4152,0.4146,0.4136,0.4135,0.4148,0.4148,0.4148,0,0.4251,0.4235,0.4224,0.422,0.4208,0.4203,0.4198,0.419,0.4184,0.4176,0.4172,0.4163,0.4158,0.4152,0.4147,0.4149,0.4135,0.4137,0.4132,0.4133,0.4129,0.4129,0.4118,0.4126,0.4126,0.4126,0.4127,0,0.424,0.423,0.4222,0.4215,0.4205,0.4199,0.419,0.4185,0.4178,0.417,0.4167,0.416,0.4154,0.4147,0.4143,0.4134,0.4132,0.4129,0.4128,0.4129,0.413,0.4126,0.4127,0.4126,0.4126,0.4126,0.4126,0,0.4232,0.4226,0.4214,0.4204,0.4201,0.4194,0.4186,0.418,0.4175,0.4166,0.4163,0.4156,0.4147,0.4142,0.4131,0.4128,0.4118,0.4117,0.4121,0.412,0.4116,0.4116,0.4102,0.41,0.411,0.4109,0.4109,0,0.4225,0.4218,0.4207,0.4202,0.4197,0.4188,0.4183,0.4178,0.4172,0.4162,0.4157,0.4148,0.4141,0.4127,0.4121,0.4113,0.4112,0.4108,0.4111,0.4113,0.4112,0.4113,0.4112,0.4107,0.4107,0.4107,0.4107,0,0.4213,0.4211,0.4203,0.4193,0.4187,0.4179,0.4172,0.4168,0.4162,0.4156,0.4147,0.4141,0.413,0.4121,0.4113,0.4108,0.4107,0.4106,0.4105,0.4105,0.4108,0.4107,0.4119,0.4106,0.4106,0.4106,0.4106,0.4106,0.4206,0.42,0.4191,0.4183,0.4177,0.417,0.4164,0.4159,0.4151,0.4141,0.4139,0.413,0.4123,0.4111,0.4106,0.4099,0.41,0.4098,0.4097,0.4097,0.4097,0.4109,0.4098,0.4098,0.4098,0.4098,0.4098,0,0.4194,0.4189,0.4181,0.4171,0.4164,0.4163,0.4156,0.415,0.4142,0.4135,0.4128,0.4118,0.411,0.4104,0.4096,0.4092,0.4091,0.409,0.409,0.4089,0.4096,0.4099,0.409,0.409,0.409,0.409,0.409,0.409,0.4187,0.4177,0.4174,0.4161,0.4156,0.4146,0.4142,0.4136,0.4131,0.412,0.4113,0.4109,0.4103,0.4095,0.4087,0.4086,0.4083,0.4082,0.4081,0.4088,0.4088,0.4089,0.4091,0.4082,0.4082,0.4074,0.4074,0.4074]},{"header":{"parameterUnit":"m.s-1","parameterCategory":1,"la1":30.2991,"la2":30.254,"lo1":-89.0895,"lo2":-89.0444,"dy":0.0017,"dx":0.0017,"nx":28,"ny":28,"refTime":"2024-12-02T03:00:00:Z","depth":0,"parameterNumber":3,"parameterNumberName":"V-component_of_WINDS"},"data":[0,0,0,0,0,0,0,0,0,0,0,0,0,0,0,0,0,0,0,0,0,0,0,0,0,0,0,0,0,0,0,0,0,0,0,0,0,0,0,0,0,0,0,0,0,0,0,0,0,0,0,0,0,0,0,0,0,0,-1.723,-1.7231,0,-1.7309,-1.731,-1.7311,-1.7298,-1.7297,-1.7295,-1.7294,-1.7372,-1.7375,-1.7379,0,0,0,0,0,0,0,0,0,0,0,0,0,-1.7066,-1.7069,-1.723,-1.7231,-1.7232,-1.7309,-1.731,-1.7311,-1.7298,-1.7297,-1.7295,-1.7293,-1.7371,-1.7375,-1.7379,0,0,0,0,0,0,0,0,0,0,0,0,0,-1.714,-1.707,-1.723,-1.7235,-1.7236,-1.7309,-1.731,-1.7312,-1.7299,-1.7297,-1.7295,-1.7293,-1.737,-1.7375,-1.738,-1.7451,0,0,-1.7395,-1.7397,0,0,0,0,0,0,0,0,-1.7136,-1.7146,-1.7233,-1.7235,-1.7236,-1.7292,-1.7281,-1.7358,-1.7299,-1.7275,-1.7294,-1.7292,-1.7347,-1.7354,-1.7373,-1.7455,-1.7458,-1.7395,-1.7398,-1.7401,-1.7402,0,0,0,0,0,0,0,-1.7131,-1.7143,-1.7262,-1.7235,-1.7237,-1.7232,-1.7241,-1.7295,-1.7321,-1.7277,-1.7276,-1.7286,-1.7347,-1.7368,-1.7375,-1.7459,-1.7395,-1.74,-1.7403,-1.7405,-1.7604,-1.7606,0,0,0,0,0,0,-1.7124,-1.7138,-1.7259,-1.7264,-1.718,-1.7237,-1.7246,-1.7276,-1.7321,-1.7326,-1.7287,-1.7285,-1.736,-1.7369,-1.7377,-1.7464,-1.74,-1.7405,-1.7408,-1.7601,-1.7604,-1.7607,0,0,0,0,0,0,-1.7121,-1.7135,-1.7256,-1.7201,-1.7216,-1.7242,-1.7276,-1.7279,-1.7299,-1.7329,-1.7333,-1.7304,-1.7359,-1.737,-1.7433,-1.7467,-1.7407,-1.7412,-1.7599,-1.7602,-1.7605,-1.7639,0,0,0,0,0,0,-1.7116,-1.7134,-1.7162,-1.7202,-1.7219,-1.7311,-1.7278,-1.7282,-1.7309,-1.7306,-1.7345,-1.735,-1.7358,-1.7426,-1.7438,-1.7473,-1.7416,-1.7596,-1.76,-1.7604,-1.7635,-1.7643,-1.765,0,0,0,0,0,-1.711,-1.7168,-1.7164,-1.7179,-1.7255,-1.7313,-1.7323,-1.7332,-1.7311,-1.7339,-1.7358,-1.7349,-1.7461,-1.7432,-1.7446,-1.7483,-1.7594,-1.7599,-1.7604,-1.7631,-1.7641,-1.7649,0,0,0,0,0,0,-1.7131,-1.7173,-1.7169,-1.7242,-1.7274,-1.7311,-1.7347,-1.7343,-1.7381,-1.7377,-1.7386,-1.7395,-1.7459,-1.7477,-1.7444,-1.7554,-1.7524,-1.7532,-1.754,-1.755,-1.7557,-1.7552,-1.742,0,0,0,0,0,-1.7145,-1.7189,-1.7223,-1.7284,-1.73,-1.7321,-1.7347,-1.7351,-1.7385,-1.7398,-1.7421,-1.7454,-1.7496,-1.7524,-1.7564,-1.7637,-1.7645,-1.7669,-1.7676,-1.7682,-1.7689,-1.7729,-1.7739,-1.7624,-1.7623,-1.7623,0,0,-1.7172,-1.7201,-1.7228,-1.7289,-1.7314,-1.736,-1.7333,-1.7382,-1.7415,-1.7405,-1.7466,-1.7484,-1.7521,-1.7589,-1.762,-1.7606,-1.7723,-1.7689,-1.7693,-1.7697,-1.7735,-1.7746,-1.7756,-1.7627,-1.7626,-1.7626,0,0,-1.7246,-1.7272,-1.7325,-1.7351,-1.7391,-1.7404,-1.7417,-1.7454,-1.7466,-1.7528,-1.7521,-1.756,-1.7634,-1.766,-1.7683,-1.7765,-1.7758,-1.7778,-1.7817,-1.7856,-1.7865,-1.7873,-1.7903,-1.7913,-1.7785,-1.7785,-1.7785,0,-1.7275,-1.7344,-1.7353,-1.7403,-1.7429,-1.7423,-1.7476,-1.7501,-1.7551,-1.757,-1.7553,-1.7644,-1.7668,-1.7742,-1.7763,-1.7781,-1.7796,-1.7774,-1.7863,-1.7871,-1.7879,-1.7907,-1.7918,-1.7787,-1.7787,-1.7787,-1.7786,0,-1.7377,-1.7425,-1.7463,-1.7513,-1.7544,-1.7595,-1.7611,-1.7641,-1.7642,-1.7657,-1.7719,-1.7747,-1.7794,-1.7811,-1.7813,-1.7885,-1.7876,-1.7861,-1.7831,-1.7892,-1.7919,-1.793,-1.779,-1.7789,-1.7789,-1.7788,0,0,-1.7467,-1.7521,-1.7535,-1.7557,-1.76,-1.7636,-1.7687,-1.7733,-1.7758,-1.7793,-1.7835,-1.7897,-1.7883,-1.7909,-1.7914,-1.7947,-1.8011,-1.7928,-1.7929,-1.7943,-1.8092,-1.8103,-1.8116,-1.8006,-1.8008,-1.8009,-1.8089,0,-1.7545,-1.7636,-1.7645,-1.7726,-1.7769,-1.7763,-1.7807,-1.7838,-1.7852,-1.7891,-1.7907,-1.795,-1.793,-1.7945,-1.7978,-1.7996,-1.8041,-1.799,-1.8045,-1.8047,-1.8037,-1.813,-1.8142,-1.8216,-1.81,-1.8101,-1.8103,0,-1.7648,-1.7687,-1.7772,-1.7808,-1.7827,-1.7866,-1.7909,-1.7946,-1.798,-1.7988,-1.8017,-1.8017,-1.8068,-1.8036,-1.8106,-1.8071,-1.8094,-1.8106,-1.8109,-1.8115,-1.8079,-1.8139,-1.824,-1.8251,-1.8119,-1.8118,-1.8117,0,-1.7706,-1.7778,-1.7839,-1.7858,-1.7902,-1.7929,-1.7949,-1.7981,-1.8007,-1.8044,-1.8062,-1.8103,-1.8127,-1.8159,-1.8169,-1.8145,-1.8239,-1.8208,-1.8247,-1.8247,-1.8268,-1.8266,-1.8374,-1.8281,-1.8281,-1.8281,-1.8281,0,-1.7792,-1.7845,-1.7865,-1.7903,-1.7961,-1.797,-1.8027,-1.8045,-1.8073,-1.8113,-1.811,-1.8147,-1.8158,-1.8197,-1.8205,-1.8262,-1.8273,-1.828,-1.8282,-1.8281,-1.828,-1.8297,-1.8292,-1.8284,-1.8283,-1.8282,-1.8282,0,-1.7867,-1.7883,-1.7948,-1.7984,-1.7994,-1.8035,-1.8066,-1.8101,-1.8115,-1.8165,-1.8177,-1.8199,-1.8244,-1.8258,-1.8313,-1.8318,-1.8385,-1.8382,-1.8374,-1.8374,-1.8413,-1.8409,-1.8536,-1.8553,-1.8448,-1.8449,-1.845,0,-1.7921,-1.7961,-1.8002,-1.8028,-1.8049,-1.8092,-1.812,-1.813,-1.8158,-1.82,-1.823,-1.8275,-1.8312,-1.8385,-1.8405,-1.8447,-1.8445,-1.8486,-1.8451,-1.8449,-1.8446,-1.8444,-1.8448,-1.8493,-1.8494,-1.8495,-1.8496,0,-1.8016,-1.8022,-1.8062,-1.8105,-1.8138,-1.8173,-1.8205,-1.8227,-1.8242,-1.8274,-1.8321,-1.835,-1.8406,-1.845,-1.8493,-1.8511,-1.8506,-1.8506,-1.8518,-1.8518,-1.8512,-1.8516,-1.8393,-1.8504,-1.8503,-1.8502,-1.8502,-1.8501,-1.8083,-1.8118,-1.8152,-1.8197,-1.8223,-1.8253,-1.8288,-1.8306,-1.8346,-1.8393,-1.8396,-1.8447,-1.8479,-1.8535,-1.8556,-1.8595,-1.8583,-1.8599,-1.8604,-1.8608,-1.8611,-1.8505,-1.8603,-1.8603,-1.8602,-1.8602,-1.8602,0,-1.8178,-1.82,-1.8241,-1.8287,-1.8322,-1.8314,-1.8349,-1.8379,-1.8424,-1.8455,-1.8491,-1.8545,-1.8588,-1.8611,-1.8654,-1.8681,-1.868,-1.8692,-1.8691,-1.8695,-1.8619,-1.8606,-1.8693,-1.8693,-1.8693,-1.8693,-1.8693,-1.8692,-1.8232,-1.8292,-1.8301,-1.8373,-1.8394,-1.8445,-1.8466,-1.8493,-1.8518,-1.8578,-1.8615,-1.8629,-1.8657,-1.8701,-1.8741,-1.8746,-1.8762,-1.8776,-1.878,-1.871,-1.87,-1.8692,-1.8679,-1.8779,-1.878,-1.8853,-1.8854,-1.8854]}]]